Weather History for KVQQ - December, 2013

Change the Weather History Date:

Friday, December 6, 2013

  Actual Average (KJAX) Record (KJAX)
Temperature  
Mean Temperature 71 °F 57 °F  
Max Temperature 82 °F 69 °F 83 °F (2013)
Min Temperature 59 °F 46 °F 26 °F (1876)
Degree Days  
Heating Degree Days 0 9  
Month to date heating degree days 50  
Since 1 July heating degree days 223  
Cooling Degree Days 6 1  
Month to date cooling degree days 6  
Year to date cooling degree days 2650  
Growing Degree Days 21 (Base 50)    
Moisture  
Dew Point 64 °F    
Average Humidity 84    
Maximum Humidity 100    
Minimum Humidity 51    
Precipitation  
Precipitation 0.00 in 0.09 in 1.38 in (1979)
Month to date precipitation 0.53  
Year to date precipitation 50.12  
Snow  
Snow 0.00 in 0.00 in 0.00 in (2001)
Month to date snowfall 0.0  
Since 1 July snowfall 0.0  
Snow Depth -    
Sea Level Pressure  
Sea Level Pressure 30.15 in    
Wind  
Wind Speed 3 mph (SSW)    
Max Wind Speed 12 mph    
Max Gust Speed -    
Visibility 9 miles    
Events      
T = Trace of Precipitation, MM = Missing Value Source: NWS Daily Summary

Daily Weather History Graph

Daily Weather History Graph

Search for Another Location

Airport or City:

Trip Planner

Search our weather history database for the weather conditions in past years. The results will help you decide how hot, cold, wet, or windy it might be!

Date:

Astronomy

Dec. 06, 2013 Rise Set
Actual Time 7:10 AM EST 5:27 PM EST
Civil Twilight 6:44 AM EST 5:53 PM EST
Nautical Twilight 6:14 AM EST 6:23 PM EST
Astronomical Twilight 5:45 AM EST 6:52 PM EST
Moon 10:24 AM EST (12/6) 9:46 PM EST (12/6)
Length of Visible Light 11h 09m
Length of Day
10h 16m
Waxing Crescent, 19% of the Moon is Illuminated
Dec 6
Waxing Crescent
Dec 9
First Quarter
Dec 17
Full
Dec 25
Last Quarter
Jan 1
New

Hourly Weather History & Observations

Time (EST) Temp. Heat Index Dew Point Humidity Pressure Visibility Wind Dir Wind Speed Gust Speed Precip Events Conditions
12:15 AM 64.4 °F - 64.4 °F 100% 30.15 in 10.0 mi Calm Calm - N/A   Clear
6:35 AM 62.6 °F - 62.6 °F 100% 30.15 in 7.0 mi Calm Calm - N/A   Clear
6:50 AM 62.6 °F - 62.6 °F 100% 30.15 in 7.0 mi Calm Calm - N/A   Clear
7:50 AM 66.2 °F - 66.2 °F 100% 30.15 in 10.0 mi South 4.6 mph - N/A   Clear
8:50 AM 69.8 °F - 68.0 °F 94% 30.16 in 10.0 mi South 9.2 mph - N/A   Clear
9:50 AM 73.4 °F - 68.0 °F 83% 30.17 in 10.0 mi South 5.8 mph - N/A   Partly Cloudy
10:50 AM 78.8 °F - 66.2 °F 65% 30.17 in 10.0 mi South 11.5 mph - N/A   Partly Cloudy
11:50 AM 80.6 °F 82.3 °F 64.4 °F 58% 30.15 in 10.0 mi South 9.2 mph - N/A   Partly Cloudy
12:50 PM 82.4 °F 83.9 °F 64.4 °F 54% 30.13 in 10.0 mi SSW 11.5 mph - N/A   Scattered Clouds
1:50 PM 82.4 °F 83.9 °F 64.4 °F 54% 30.11 in 10.0 mi SSW 8.1 mph - N/A   Mostly Cloudy
2:50 PM 82.4 °F 83.4 °F 62.6 °F 51% 30.11 in 10.0 mi SW 11.5 mph - N/A   Mostly Cloudy
3:50 PM 82.4 °F 83.9 °F 64.4 °F 54% 30.11 in 10.0 mi South 8.1 mph - N/A   Scattered Clouds
4:50 PM 80.6 °F 82.3 °F 64.4 °F 58% 30.11 in 10.0 mi Calm Calm - N/A   Partly Cloudy
5:50 PM 71.6 °F - 66.2 °F 83% 30.12 in 10.0 mi Calm Calm - N/A   Clear
6:50 PM 68.0 °F - 64.4 °F 88% 30.14 in 10.0 mi Calm Calm - N/A   Scattered Clouds
7:50 PM 71.6 °F - 64.4 °F 78% 30.15 in 10.0 mi Calm Calm - N/A   Scattered Clouds
8:15 PM 71.6 °F - 64.4 °F 78% 30.15 in 10.0 mi SSW 4.6 mph - N/A   Partly Cloudy
8:35 PM 69.8 °F - 64.4 °F 83% 30.16 in 10.0 mi South 3.5 mph - N/A   Clear
8:55 PM 66.2 °F - 62.6 °F 88% 30.16 in 10.0 mi Calm Calm - N/A   Clear
9:15 PM 64.4 °F - 62.6 °F 94% 30.16 in 10.0 mi Calm Calm - N/A   Clear
9:35 PM 64.4 °F - 62.6 °F 94% 30.16 in 10.0 mi Calm Calm - N/A   Clear
9:55 PM 62.6 °F - 62.6 °F 100% 30.17 in 7.0 mi Calm Calm - N/A   Clear
10:15 PM 62.6 °F - 62.6 °F 100% 30.18 in 5.0 mi Calm Calm - N/A   Clear
10:35 PM 60.8 °F - 59.0 °F 94% 30.18 in 8.0 mi Calm Calm - N/A   Clear
10:55 PM 62.6 °F - 62.6 °F 100% 30.18 in 5.0 mi Calm Calm - N/A   Clear
11:15 PM 60.8 °F - 60.8 °F 100% 30.18 in 4.0 mi Calm Calm - N/A   Clear
11:35 PM 60.8 °F - 60.8 °F 100% 30.18 in 5.0 mi Calm Calm - N/A   Partly Cloudy
11:55 PM 59.0 °F - 59.0 °F 100% 30.17 in 5.0 mi Calm Calm - N/A   Scattered Clouds